Metropolis, IL

2:41 PM CST on February 11, 2016 (GMT -0600)
Metropolis

Weather History for KM30 - June, 2014

Change the Weather History Date:

Monday, June 9, 2014

  Actual Average (KPAH) Record (KPAH)
Temperature  
Mean Temperature 70 °F 74 °F  
Max Temperature 76 °F 85 °F 97 °F (1953)
Min Temperature 66 °F 63 °F 53 °F (1960)
Degree Days  
Heating Degree Days 0 0  
Month to date heating degree days 0  
Since 1 June heating degree days 0  
Since 1 July heating degree days 4128  
Cooling Degree Days 6 9  
Month to date cooling degree days 73  
Year to date cooling degree days 245  
Since 1 June cooling degree days 73  
Growing Degree Days 20 (Base 50)    
Moisture  
Dew Point 63 °F    
Average Humidity 80    
Maximum Humidity 96    
Minimum Humidity 62    
Precipitation  
Precipitation 0.15 in 0.13 in 3.96 in (1998)
Month to date precipitation 1.24  
Year to date precipitation 22.46  
Snow  
Snow 0.00 in 0.00 in 0.00 in (2002)
Month to date snowfall 0.0  
Since 1 June snowfall 0.0  
Since 1 July snowfall 9.1  
Snow Depth -    
Sea Level Pressure  
Sea Level Pressure 29.86 in    
Wind  
Wind Speed 3 mph (ESE)    
Max Wind Speed 7 mph    
Max Gust Speed -    
Visibility 9 miles    
Events Rain    
T = Trace of Precipitation, MM = Missing Value Source: NWS Daily Summary

Daily Weather History Graph

Daily Weather History Graph

Search for Another Location

Airport or City:

Trip Planner

Search our weather history database for the weather conditions in past years. The results will help you decide how hot, cold, wet, or windy it might be!

Date:

Astronomy

Jun. 09, 2014 Rise Set
Actual Time 5:34 AM CDT 8:14 PM CDT
Civil Twilight 5:03 AM CDT 8:45 PM CDT
Nautical Twilight 4:25 AM CDT 9:23 PM CDT
Astronomical Twilight 3:42 AM CDT 10:06 PM CDT
Moon 4:39 PM CDT (6/9) 2:56 AM CDT (6/9)
Length of Visible Light 15h 41m
Length of Day
14h 39m
Waxing Gibbous, 85% of the Moon is Illuminated
Jun 9
Waxing Gibbous
Jun 12
Full
Jun 19
Last Quarter
Jun 27
New
Jul 5
First Quarter

Hourly Weather History & Observations

Time (CDT) Temp. Dew Point Humidity Pressure Visibility Wind Dir Wind Speed Gust Speed Precip Events Conditions
12:15 AM 68.9 °F 64.6 °F 86% 29.95 in 10.0 mi Calm Calm - N/A Rain Light Rain
12:35 AM 69.1 °F 63.9 °F 83% 29.95 in 10.0 mi Calm Calm - N/A Rain Light Rain
12:55 AM 69.1 °F 64.2 °F 84% 29.95 in 10.0 mi Calm Calm - N/A   Drizzle
1:15 AM 68.9 °F 66.0 °F 90% 29.95 in 10.0 mi Calm Calm - N/A Rain Light Rain
1:35 AM 68.0 °F 64.8 °F 89% 29.95 in 10.0 mi South 3.5 mph - 0.01 in Rain Rain
1:55 AM 67.6 °F 64.6 °F 90% 29.95 in 7.0 mi ESE 3.5 mph - 0.01 in Rain Light Rain
2:15 AM 67.5 °F 62.8 °F 85% 29.95 in 10.0 mi ESE 4.6 mph - 0.01 in   Drizzle
2:35 AM 67.1 °F 63.3 °F 88% 29.93 in 10.0 mi SE 3.5 mph - 0.01 in   Drizzle
2:55 AM 67.1 °F 63.7 °F 89% 29.92 in 10.0 mi ESE 3.5 mph - 0.01 in   Overcast
3:15 AM 67.1 °F 63.1 °F 87% 29.90 in 10.0 mi ESE 3.5 mph - N/A   Mostly Cloudy
3:35 AM 66.7 °F 63.5 °F 89% 29.90 in 10.0 mi SE 3.5 mph - N/A   Scattered Clouds
3:55 AM 66.7 °F 63.1 °F 88% 29.89 in 10.0 mi ESE 4.6 mph - N/A   Mostly Cloudy
4:15 AM 66.7 °F 62.2 °F 85% 29.88 in 10.0 mi East 3.5 mph - N/A   Mostly Cloudy
4:35 AM 66.7 °F 62.2 °F 85% 29.88 in 10.0 mi Calm Calm - N/A   Overcast
4:55 AM 66.7 °F 62.6 °F 86% 29.87 in 10.0 mi Calm Calm - N/A   Overcast
5:15 AM 66.4 °F 62.4 °F 87% 29.87 in 10.0 mi Calm Calm - N/A   Overcast
5:35 AM 66.4 °F 62.6 °F 88% 29.88 in 10.0 mi Calm Calm - N/A   Overcast
5:55 AM 66.6 °F 62.6 °F 87% 29.88 in 10.0 mi Calm Calm - N/A   Overcast
6:15 AM 66.7 °F 62.4 °F 86% 29.88 in 10.0 mi Calm Calm - N/A   Overcast
6:35 AM 66.7 °F 62.8 °F 87% 29.88 in 10.0 mi Calm Calm - N/A   Overcast
6:55 AM 66.9 °F 62.8 °F 87% 29.88 in 10.0 mi Calm Calm - N/A   Overcast
7:15 AM 67.1 °F 62.6 °F 85% 29.88 in 10.0 mi Calm Calm - N/A   Overcast
7:35 AM 68.0 °F 62.8 °F 83% 29.88 in 10.0 mi East 3.5 mph - N/A   Overcast
7:55 AM 68.7 °F 62.6 °F 81% 29.88 in 10.0 mi Calm Calm - N/A   Overcast
8:15 AM 69.1 °F 62.1 °F 78% 29.88 in 10.0 mi ENE 3.5 mph - N/A   Overcast
8:35 AM 69.8 °F 62.2 °F 77% 29.88 in 10.0 mi Calm Calm - N/A   Overcast
8:55 AM 69.8 °F 61.5 °F 75% 29.89 in 10.0 mi ESE 3.5 mph - N/A   Overcast
9:15 AM 70.7 °F 61.9 °F 74% 29.90 in 10.0 mi East 3.5 mph - N/A   Overcast
9:35 AM 70.7 °F 61.7 °F 73% 29.91 in 10.0 mi ESE 4.6 mph - N/A   Overcast
9:55 AM 70.0 °F 60.1 °F 71% 29.92 in 10.0 mi ESE 5.8 mph - N/A   Overcast
10:15 AM 70.7 °F 60.1 °F 69% 29.92 in 10.0 mi ESE 4.6 mph - N/A   Overcast
10:35 AM 71.2 °F 59.9 °F 67% 29.91 in 10.0 mi ESE 6.9 mph - N/A   Overcast
10:55 AM 70.7 °F 60.1 °F 69% 29.91 in 10.0 mi SE 4.6 mph - N/A   Overcast
11:30 AM 71.6 °F 60.6 °F 68% 29.91 in 10.0 mi ESE 5.8 mph - N/A   Overcast
11:55 AM 70.9 °F 60.1 °F 69% 29.90 in 10.0 mi ESE 5.8 mph - N/A   Overcast
12:15 PM 71.8 °F 60.4 °F 67% 29.90 in 10.0 mi ESE 5.8 mph - N/A   Overcast
12:35 PM 71.6 °F 60.4 °F 68% 29.89 in 10.0 mi East 3.5 mph - N/A   Overcast
12:55 PM 72.1 °F 60.3 °F 66% 29.89 in 10.0 mi Calm Calm - N/A   Overcast
1:15 PM 73.6 °F 61.0 °F 65% 29.88 in 10.0 mi East 4.6 mph - N/A   Overcast
1:35 PM 73.9 °F 60.6 °F 63% 29.87 in 10.0 mi East 5.8 mph - N/A   Overcast
2:10 PM 74.7 °F 61.2 °F 63% 29.86 in 10.0 mi ESE 4.6 mph - N/A   Overcast
2:35 PM 75.2 °F 61.5 °F 62% 29.85 in 10.0 mi ESE 6.9 mph - N/A   Overcast
2:55 PM 75.4 °F 62.1 °F 63% 29.84 in 10.0 mi ESE 5.8 mph - N/A   Overcast
3:15 PM 75.2 °F 61.9 °F 63% 29.83 in 10.0 mi East 4.6 mph - N/A   Overcast
3:35 PM 74.8 °F 62.2 °F 65% 29.82 in 10.0 mi East 5.8 mph - N/A   Overcast
4:15 PM 75.0 °F 62.1 °F 64% 29.82 in 10.0 mi East 6.9 mph - N/A   Mostly Cloudy
4:35 PM 74.3 °F 62.1 °F 65% 29.83 in 10.0 mi ESE 4.6 mph - N/A   Overcast
4:55 PM 73.8 °F 62.4 °F 68% 29.82 in 10.0 mi East 4.6 mph - N/A   Overcast
5:15 PM 73.8 °F 62.6 °F 68% 29.81 in 10.0 mi East 3.5 mph - N/A   Overcast
5:35 PM 73.8 °F 62.6 °F 68% 29.80 in 10.0 mi East 4.6 mph - N/A   Overcast
5:55 PM 73.6 °F 62.6 °F 68% 29.80 in 10.0 mi East 5.8 mph - N/A   Overcast
6:15 PM 73.4 °F 62.8 °F 69% 29.79 in 10.0 mi East 5.8 mph - N/A   Overcast
6:35 PM 73.4 °F 62.8 °F 69% 29.81 in 10.0 mi ESE 3.5 mph - N/A   Overcast
6:55 PM 72.3 °F 63.7 °F 74% 29.81 in 5.0 mi East 4.6 mph - N/A Rain Light Rain
7:15 PM 71.1 °F 65.1 °F 81% 29.80 in 10.0 mi East 3.5 mph - N/A Rain Light Rain
7:35 PM 70.7 °F 65.5 °F 83% 29.81 in 10.0 mi ESE 4.6 mph - 0.01 in Rain Light Rain
7:55 PM 70.7 °F 66.0 °F 85% 29.81 in 7.0 mi Calm Calm - 0.02 in Rain Rain
8:15 PM 69.8 °F 67.1 °F 91% 29.80 in 4.0 mi East 3.5 mph - 0.03 in Rain Rain
8:35 PM 69.4 °F 67.3 °F 93% 29.78 in 4.0 mi East 3.5 mph - 0.07 in Rain Rain
8:55 PM 69.3 °F 67.3 °F 93% 29.78 in 4.0 mi Calm Calm - 0.08 in Rain Light Rain
9:10 PM 69.3 °F 67.5 °F 94% 29.78 in 5.0 mi East 5.8 mph - 0.01 in   Light Drizzle
9:35 PM 69.3 °F 67.3 °F 93% 29.78 in 5.0 mi ESE 5.8 mph - 0.01 in   Light Drizzle
9:55 PM 69.4 °F 67.8 °F 95% 29.78 in 4.0 mi ESE 4.6 mph - 0.01 in   Light Drizzle
10:15 PM 69.4 °F 68.0 °F 95% 29.78 in 4.0 mi East 5.8 mph - N/A   Light Drizzle
10:35 PM 69.8 °F 68.2 °F 95% 29.78 in 4.0 mi ESE 6.9 mph - N/A   Overcast
10:55 PM 69.8 °F 68.5 °F 96% 29.78 in 5.0 mi SE 4.6 mph - N/A   Overcast
11:15 PM 70.2 °F 69.1 °F 96% 29.78 in 4.0 mi Calm Calm - N/A   Overcast
11:35 PM 70.3 °F 69.3 °F 96% 29.78 in 4.0 mi SSE 3.5 mph - N/A Rain Light Rain
11:55 PM 70.3 °F 69.3 °F 96% 29.78 in 3.0 mi SE 4.6 mph - 0.02 in Rain Rain